Previsão horária em Alisovo

Hoje, 15 Junho, Terça-feira

Tempo Temperatura Precipitação Vento Pressão Humidade
00:00 +20°C° 0 mm 2 m/s 736 mmHg 64%
01:00 +19°C° 0 mm 2 m/s 736 mmHg 65%
02:00 +19°C° 0 mm 2 m/s 736 mmHg 66%
03:00 +19°C° 0 mm 2 m/s 736 mmHg 68%
04:00 +18°C° 0 mm 2 m/s 736 mmHg 69%
05:00 +19°C° 0 mm 2 m/s 736 mmHg 63%
06:00 +20°C° 0 mm 2 m/s 736 mmHg 58%
07:00 +22°C° 0 mm 3 m/s 736 mmHg 52%
08:00 +25°C° 0 mm 3 m/s 736 mmHg 48%
09:00 +26°C° 0 mm 4 m/s 736 mmHg 43%
10:00 +28°C° 0 mm 5 m/s 737 mmHg 38%
11:00 +29°C° 0 mm 4 m/s 736 mmHg 35%
12:00 +32°C° 0 mm 4 m/s 736 mmHg 32%
13:00 +33°C° 0 mm 4 m/s 736 mmHg 28%
14:00 +33°C° 0 mm 4 m/s 736 mmHg 28%
15:00 +33°C° 0 mm 4 m/s 735 mmHg 28%
16:00 +33°C° 0 mm 4 m/s 735 mmHg 27%
17:00 +32°C° 0 mm 4 m/s 735 mmHg 33%
18:00 +30°C° 0 mm 3 m/s 734 mmHg 39%
19:00 +29°C° 0 mm 2 m/s 734 mmHg 44%
20:00 +27°C° 0 mm 2 m/s 734 mmHg 45%
21:00 +26°C° 0 mm 2 m/s 734 mmHg 45%
22:00 +24°C° 0 mm 2 m/s 734 mmHg 46%
23:00 +23°C° 0 mm 2 m/s 733 mmHg 46%

Amanhã, 16 Junho, Quarta-feira

Tempo Temperatura Precipitação Vento Pressão Humidade
00:00 +23°C° 0 mm 2 m/s 733 mmHg 46%
01:00 +21°C° 0 mm 2 m/s 733 mmHg 47%
02:00 +21°C° 0 mm 3 m/s 733 mmHg 46%
03:00 +21°C° 0 mm 3 m/s 733 mmHg 45%
04:00 +21°C° 0 mm 3 m/s 733 mmHg 44%
05:00 +21°C° 0 mm 3 m/s 733 mmHg 45%
06:00 +22°C° 0 mm 3 m/s 734 mmHg 46%
07:00 +24°C° 0 mm 3 m/s 734 mmHg 46%
08:00 +26°C° 0 mm 4 m/s 734 mmHg 44%
09:00 +27°C° 0 mm 5 m/s 734 mmHg 42%
10:00 +29°C° 0 mm 6 m/s 734 mmHg 39%
11:00 +29°C° 0 mm 6 m/s 734 mmHg 37%
12:00 +30°C° 0 mm 6 m/s 734 mmHg 35%
13:00 +30°C° 0 mm 5 m/s 734 mmHg 32%
14:00 +32°C° 0 mm 5 m/s 734 mmHg 32%
15:00 +32°C° 0 mm 6 m/s 733 mmHg 32%
16:00 +33°C° 0 mm 6 m/s 733 mmHg 31%
17:00 +32°C° 0 mm 4 m/s 733 mmHg 36%
18:00 +30°C° 0 mm 3 m/s 732 mmHg 41%
19:00 +29°C° 0 mm 2 m/s 732 mmHg 46%
20:00 +27°C° 0 mm 2 m/s 732 mmHg 50%
21:00 +25°C° 0 mm 2 m/s 732 mmHg 55%
22:00 +23°C° 0 mm 2 m/s 732 mmHg 59%
23:00 +23°C° 0 mm 1 m/s 731 mmHg 61%

Depois de amanhã, 17 Junho, Quinta-feira

Tempo Temperatura Precipitação Vento Pressão Humidade
00:00 +23°C° 0 mm 1 m/s 731 mmHg 63%
01:00 +20°C° 0 mm 0 m/s 731 mmHg 65%
02:00 +22°C° 0 mm 1 m/s 731 mmHg 67%
03:00 +21°C° 0 mm 1 m/s 731 mmHg 68%
04:00 +21°C° 0 mm 1 m/s 730 mmHg 70%
05:00 +21°C° 0 mm 2 m/s 730 mmHg 68%
06:00 +23°C° 0 mm 2 m/s 731 mmHg 66%
07:00 +24°C° 0 mm 3 m/s 731 mmHg 64%
08:00 +26°C° 0.1 mm 3 m/s 731 mmHg 61%
09:00 +27°C° 0.1 mm 4 m/s 731 mmHg 57%
10:00 +28°C° 0.1 mm 4 m/s 731 mmHg 53%
11:00 +28°C° 0.6 mm 4 m/s 731 mmHg 53%
12:00 +28°C° 0.6 mm 5 m/s 731 mmHg 53%
13:00 +28°C° 0.6 mm 5 m/s 731 mmHg 54%
14:00 +28°C° 0.6 mm 6 m/s 731 mmHg 56%
15:00 +27°C° 0.6 mm 7 m/s 731 mmHg 59%
16:00 +26°C° 0.6 mm 8 m/s 731 mmHg 61%
17:00 +24°C° 0 mm 7 m/s 732 mmHg 64%
18:00 +23°C° 0 mm 7 m/s 732 mmHg 67%
19:00 +21°C° 0 mm 7 m/s 732 mmHg 71%
20:00 +20°C° 0 mm 7 m/s 733 mmHg 69%
21:00 +19°C° 0 mm 6 m/s 733 mmHg 68%
22:00 +17°C° 0 mm 6 m/s 733 mmHg 67%
23:00 +16°C° 0 mm 6 m/s 733 mmHg 67%

18 Junho, Sexta-feira

Tempo Temperatura Precipitação Vento Pressão Humidade
00:00 +16°C° 0 mm 6 m/s 734 mmHg 68%
01:00 +15°C° 0 mm 5 m/s 734 mmHg 68%
02:00 +14°C° 0 mm 5 m/s 734 mmHg 66%
03:00 +14°C° 0 mm 5 m/s 734 mmHg 64%
04:00 +13°C° 0 mm 5 m/s 734 mmHg 62%
05:00 +14°C° 0 mm 6 m/s 735 mmHg 60%
06:00 +14°C° 0 mm 6 m/s 735 mmHg 58%
07:00 +15°C° 0 mm 7 m/s 735 mmHg 56%
08:00 +16°C° 0 mm 7 m/s 736 mmHg 51%
09:00 +17°C° 0 mm 7 m/s 736 mmHg 47%
10:00 +18°C° 0 mm 8 m/s 737 mmHg 42%
11:00 +20°C° 0 mm 8 m/s 737 mmHg 41%
12:00 +20°C° 0 mm 8 m/s 737 mmHg 40%
13:00 +19°C° 0 mm 9 m/s 737 mmHg 39%
14:00 +19°C° 0 mm 9 m/s 738 mmHg 39%
15:00 +19°C° 0 mm 9 m/s 738 mmHg 38%
16:00 +19°C° 0 mm 9 m/s 738 mmHg 38%
17:00 +18°C° 0 mm 9 m/s 739 mmHg 42%
18:00 +17°C° 0 mm 8 m/s 739 mmHg 46%
19:00 +16°C° 0 mm 8 m/s 739 mmHg 50%
20:00 +15°C° 0 mm 7 m/s 740 mmHg 52%
21:00 +14°C° 0 mm 6 m/s 740 mmHg 54%
22:00 +13°C° 0 mm 6 m/s 741 mmHg 56%
23:00 +12°C° 0 mm 5 m/s 741 mmHg 59%

19 Junho, Sábado

Tempo Temperatura Precipitação Vento Pressão Humidade
00:00 +11°C° 0 mm 4 m/s 741 mmHg 61%
01:00 +10°C° 0 mm 4 m/s 741 mmHg 63%
02:00 +10°C° 0 mm 4 m/s 742 mmHg 63%
03:00 +10°C° 0 mm 3 m/s 742 mmHg 62%
04:00 +10°C° 0 mm 3 m/s 742 mmHg 62%
05:00 +11°C° 0 mm 3 m/s 743 mmHg 59%
06:00 +13°C° 0 mm 3 m/s 743 mmHg 55%
07:00 +14°C° 0 mm 3 m/s 743 mmHg 52%
08:00 +17°C° 0 mm 4 m/s 743 mmHg 49%
09:00 +19°C° 0 mm 4 m/s 743 mmHg 46%
10:00 +20°C° 0 mm 4 m/s 743 mmHg 43%
11:00 +21°C° 0 mm 5 m/s 743 mmHg 42%
12:00 +22°C° 0 mm 5 m/s 743 mmHg 41%
13:00 +22°C° 0 mm 5 m/s 743 mmHg 40%
14:00 +23°C° 0 mm 5 m/s 743 mmHg 42%
15:00 +23°C° 0 mm 5 m/s 742 mmHg 43%
16:00 +23°C° 0 mm 6 m/s 742 mmHg 44%
17:00 +22°C° 0 mm 5 m/s 742 mmHg 48%
18:00 +22°C° 0 mm 5 m/s 742 mmHg 52%
19:00 +21°C° 0 mm 5 m/s 741 mmHg 57%
20:00 +19°C° 0 mm 4 m/s 741 mmHg 63%
21:00 +18°C° 0 mm 3 m/s 741 mmHg 70%
22:00 +16°C° 0 mm 3 m/s 741 mmHg 77%
23:00 +16°C° 0 mm 3 m/s 741 mmHg 78%

20 Junho, Domingo

Tempo Temperatura Precipitação Vento Pressão Humidade
00:00 +16°C° 0 mm 3 m/s 741 mmHg 80%
01:00 +14°C° 0 mm 3 m/s 741 mmHg 81%
02:00 +14°C° 0 mm 3 m/s 740 mmHg 82%
03:00 +14°C° 0 mm 4 m/s 740 mmHg 83%
04:00 +14°C° 0 mm 4 m/s 740 mmHg 84%
05:00 +15°C° 0 mm 4 m/s 740 mmHg 81%
06:00 +17°C° 0 mm 5 m/s 740 mmHg 79%
07:00 +19°C° 0 mm 6 m/s 740 mmHg 76%
08:00 +21°C° 0 mm 6 m/s 740 mmHg 69%
09:00 +23°C° 0 mm 6 m/s 740 mmHg 62%
10:00 +26°C° 0 mm 6 m/s 739 mmHg 55%
11:00 +27°C° 0 mm 7 m/s 739 mmHg 51%
12:00 +28°C° 0 mm 7 m/s 739 mmHg 46%
13:00 +29°C° 0 mm 7 m/s 739 mmHg 41%
14:00 +29°C° 0 mm 7 m/s 739 mmHg 44%
15:00 +28°C° 0 mm 7 m/s 739 mmHg 46%
16:00 +28°C° 0 mm 7 m/s 739 mmHg 48%
17:00 +27°C° 0 mm 7 m/s 739 mmHg 50%
18:00 +26°C° 0 mm 7 m/s 739 mmHg 52%
19:00 +23°C° 0 mm 6 m/s 740 mmHg 54%
20:00 +21°C° 0 mm 5 m/s 740 mmHg 58%
21:00 +19°C° 0 mm 4 m/s 740 mmHg 62%
22:00 +17°C° 0 mm 3 m/s 740 mmHg 67%
23:00 +17°C° 0 mm 3 m/s 740 mmHg 67%
Mostrar mais